Satellite: AO-40 Catalog number: 26609 Epoch time: 01221.38947917 Element set: 118 Inclination: 5.5727 deg RA of node: 165.6734 deg Eccentricity: 0.7982714 Arg of perigee: 312.2575 deg Mean anomaly: 3.6903 deg Mean motion: 1.25599269 rev/day Decay rate: 0.00000e+00 rev/day^2 Epoch rev: 356 Checksum: 298